Location: *
(17.3280°S, 114.7300°W)
Time: 09:33:23
(UTC+00:00)

Envisat - Visible Passes

Search period start: 27 October 2020 00:00
Search period end: 06 November 2020 00:00
Orbit: 764 x 766 km, 98.1° (Epoch: 26 October)

Date Brightness Start Highest point End Pass type
(mag) Time Alt. Az. Time Alt. Az. Time Alt. Az.
27 Oct 5.5 12:20:44 10° NE 12:24:54 26° ESE 12:29:07 10° SSE visible
28 Oct 6.0 02:21:37 10° SSW 02:25:18 20° WSW 02:28:57 10° WNW visible
30 Oct 6.0 12:10:01 10° ENE 12:13:37 20° ESE 12:17:15 10° SSE visible
31 Oct 5.5 02:09:46 10° SSW 02:14:00 27° WSW 02:18:13 10° NW visible
01 Nov 4.8 12:34:11 10° NE 12:38:52 39° ESE 12:43:36 10° S visible
02 Nov 6.4 02:36:47 10° SW 02:39:13 14° WSW 02:41:39 10° W visible
02 Nov 6.3 11:59:35 10° ENE 12:02:20 15° ESE 12:05:06 10° SE visible
04 Nov 5.4 12:23:13 10° NE 12:27:34 29° ESE 12:31:56 10° SSE visible
05 Nov 6.1 02:24:32 10° SSW 02:27:57 18° WSW 02:31:21 10° WNW visible
05 Nov 6.7 11:50:00 10° E 11:51:05 11° ESE 11:52:08 10° ESE visible
